Location: Poughquag
(41.6090°N, 73.6820°W)
Time: 16:13:52
(UTC-04:00)

ISS - Visible Passes

Search period start: 19 September 2018 00:00
Search period end: 29 September 2018 00:00
Orbit: 402 x 408 km, 51.6° (Epoch: 20 September)

Date Brightness Start Highest point End Pass type
(mag) Time Alt. Az. Time Alt. Az. Time Alt. Az.
20 Sep -1.7 20:43:48 10° SSW 20:44:49 18° SSW 20:44:49 18° SSW visible
21 Sep -2.6 19:52:23 10° S 19:55:06 24° SE 19:55:53 22° ESE visible
21 Sep -0.6 21:28:18 10° WSW 21:28:37 12° W 21:28:37 12° W visible
22 Sep -3.7 20:36:07 10° WSW 20:39:24 73° NW 20:39:25 73° NNW visible
23 Sep -3.8 19:44:11 10° SW 19:47:24 59° SE 19:50:00 15° ENE visible
23 Sep -0.9 21:21:21 10° WNW 21:22:42 18° WNW 21:22:42 18° WNW visible
24 Sep -2.4 20:28:53 10° W 20:31:57 35° NNW 20:33:04 27° NNE visible
25 Sep -3.3 19:36:35 10° WSW 19:39:50 58° NNW 19:43:06 10° NE visible
25 Sep -0.9 21:14:33 10° WNW 21:16:00 16° NNW 21:16:00 16° NNW visible
26 Sep -1.6 20:21:55 10° WNW 20:24:35 22° NNW 20:26:07 16° NNE visible
27 Sep -2.1 19:29:23 10° W 19:32:21 30° NNW 19:35:19 10° NE visible
27 Sep -0.8 21:07:39 10° NW 21:08:49 14° NNW 21:08:49 14° NNW visible
28 Sep -1.3 20:15:04 10° NW 20:17:16 16° N 20:18:46 13° NNE visible
